Startseite
Über Mich
AHP4
Galerie
Sehschlangen
Tourenbuch
Bookmarks
Elektronik
Bewertung
Geschichten
[Tagesmessung] [Jahreswerte] [Information]

Messwerte vom 30.04.2022

Die letzten Messwerte von 23:58:47 Uhr:
KategorieMesswert
Temperatur [°C]10
Luftdruck [mBar]1007
Sonneneinstrahlung0
Wind [km/h]0 aus Nordwest
Niederschlag [l/m²]0
rel.Luftfeucht.68.8%
CO2 [ppm]424

Diagramme
Messwerte vom 30.04.2022
Tagesaggregation
KategorieMinimumMaximumSchnittSumme
Temperatur [°C]62112.0063
Luftdruck [mBar]100610101008.4479
Sonneneinstrahlung247129.1792
Wind [km/h]16
rF [%]398966.4
Niederschlag [l/m²]0
CO2 [ppm]404448422.1
Einordnung alsVegetationstag

Messungen an benachbarten Tagen: Zur Jahresaggregation 2022
Tabelle aller Messwerte
UhrzeitTemperatur [°C]Luftdruck [mBar]SonneWind [km/h]RichtungRegen [l/m²]rF [%]CO2 [ppm]
00:01:47 9 1010 0 1 NW 0 69.4 427
00:04:45 9 1010 0 1 N 0 69.5 430
00:07:46 9 1010 0 3 N 0 70 430
00:10:45 9 1010 0 9 N 0 70.4 430
00:13:45 9 1010 0 4 W 0 70.6 424
00:16:45 9 1010 0 8 N 0 70.6 425
00:19:46 9 1010 0 7 NW 0 71.7 422
00:22:48 9 1010 0 15 W 0 72.8 422
00:25:49 9 1010 0 9 W 0 73.5 424
00:28:49 9 1010 0 10 NW 0 74.3 425
00:31:48 9 1010 0 9 NW 0 74.7 422
00:34:46 9 1010 0 6 SW 0 74.7 428
00:37:48 9 1010 0 12 NW 0 75.1 434
00:40:46 9 1010 0 6 NW 0 75.5 436
00:43:46 9 1010 0 2 NO 0 75.2 425
00:46:45 9 1010 0 5 W 0 75.3 425
00:49:45 9 1010 0 6 N 0 75.5 416
00:52:51 9 1010 0 3 NW 0 76.1 419
00:55:48 9 1010 0 10 NO 0 76.5 422
00:58:47 9 1010 0 2 NO 0 76.8 425
01:01:47 8 1010 0 2 N 0 77 427
01:04:46 8 1010 0 1 N 0 77.5 430
01:07:45 8 1010 0 1 N 0 77.5 430
01:10:48 8 1010 0 6 NW 0 77.4 428
01:13:47 8 1010 0 8 NO 0 79.5 424
01:16:46 8 1010 0 1 N 0 80 430
01:19:47 8 1010 0 2 W 0 79.9 428
01:22:47 8 1010 0 1 NW 0 78.9 427
01:25:47 8 1010 0 2 W 0 78.7 433
01:28:46 8 1010 0 4 NW 0 79.1 434
01:31:45 7 1010 0 1 O 0 79.5 440
01:34:48 7 1010 0 1 NW 0 79.4 436
01:37:48 7 1010 0 0 NW 0 80.9 439
01:40:47 7 1010 0 0 O 0 81.2 430
01:43:49 7 1010 0 1 NW 0 81.2 432
01:46:45 7 1010 0 1 NW 0 81.3 423
01:49:45 7 1010 0 3 W 0 81.7 427
01:52:48 7 1010 0 2 NW 0 81.5 422
01:55:47 7 1010 0 1 W 0 82 428
01:58:46 7 1010 0 3 NW 0 81.8 428
02:01:47 8 1010 0 1 N 0 82.4 428
02:04:47 8 1010 0 1 NW 0 82.5 428
02:07:47 8 1010 0 3 W 0 82.1 428
02:10:48 8 1010 0 2 NW 0 82.1 425
02:13:47 8 1010 0 3 W 0 82.4 425
02:16:45 7 1010 0 4 W 0 82.4 430
02:19:45 7 1010 0 4 W 0 82.3 431
02:22:48 7 1010 0 4 NW 0 82.4 431
02:25:48 7 1010 0 1 NW 0 82.4 424
02:28:48 7 1010 0 1 NW 0 82.2 428
02:31:44 7 1010 0 3 W 0 82.2 433
02:34:45 7 1010 0 4 N 0 81.9 433
02:37:47 7 1010 0 2 NW 0 82.3 437
02:40:45 8 1010 0 1 N 0 82.6 434
02:43:45 8 1010 0 1 S 0 82.4 430
02:46:48 8 1010 0 3 NO 0 82.3 430
02:49:46 8 1010 0 1 N 0 82.2 433
02:52:46 8 1010 0 6 W 0 82.1 439
02:55:46 8 1010 0 0 N 0 81.9 434
02:58:47 8 1010 0 2 NW 0 81.8 428
03:01:48 7 1010 0 5 SW 0 81.8 424
03:04:45 7 1010 0 1 N 0 81.7 429
03:07:48 7 1009 0 5 N 0 81.9 433
03:10:47 7 1010 0 4 N 0 82.1 434
03:13:47 7 1010 0 6 NW 0 82 437
03:16:46 7 1010 0 2 NW 0 82 433
03:19:49 8 1010 0 2 SW 0 81.8 434
03:22:47 8 1010 0 1 NW 0 81.6 433
03:25:45 8 1010 0 3 N 0 81.6 431
03:28:45 8 1010 0 5 N 0 81.7 428
03:31:45 8 1010 0 2 O 0 81.6 428
03:34:44 8 1010 0 3 W 0 81.4 433
03:37:47 8 1010 0 1 NO 0 81.5 430
03:40:48 8 1010 0 9 NW 0 81.6 425
03:43:45 8 1010 0 1 N 0 81.9 431
03:46:45 7 1010 0 3 W 0 81.5 433
03:49:44 7 1010 0 5 W 0 81.2 436
03:52:49 7 1010 0 5 NW 0 81.6 433
03:55:46 7 1009 0 1 SW 0 82.3 434
03:58:46 7 1010 0 1 W 0 83.2 433
04:01:48 7 1010 0 4 W 0 82.8 439
04:04:46 7 1010 0 2 W 0 82.9 439
04:07:47 7 1010 0 9 W 0 83.2 442
04:10:48 7 1009 0 3 NW 0 83.8 433
04:13:46 7 1009 0 5 W 0 83.6 434
04:16:45 7 1010 0 6 W 0 83.8 433
04:19:45 7 1010 0 4 W 0 84.1 439
04:22:46 7 1010 0 1 SW 0 84.3 437
04:25:45 7 1010 0 1 N 0 84 433
04:28:47 7 1010 0 3 W 0 84.4 433
04:31:46 7 1010 0 2 N 0 84.7 430
04:34:46 7 1009 0 3 N 0 84.8 439
04:37:45 7 1010 0 1 NO 0 85.1 439
04:40:45 7 1010 0 6 W 0 84.9 439
04:43:48 7 1009 0 4 N 0 85.2 436
04:46:46 7 1009 0 3 O 0 85.1 436
04:49:47 7 1010 0 6 W 0 85 440
04:52:45 7 1009 0 3 W 0 84.8 436
04:55:49 7 1009 0 3 SW 0 84.7 433
04:58:46 7 1010 0 3 W 0 84.5 431
05:01:47 7 1010 0 3 NW 0 84.5 436
05:04:48 7 1010 0 2 NW 0 84.8 436
05:07:48 7 1009 0 0 NW 0 85 437
05:10:47 6 1010 0 1 N 0 85.7 439
05:13:48 6 1010 0 0 S 0 86.1 440
05:16:49 6 1009 0 0 SW 0 85.5 436
05:19:48 6 1010 0 0 SW 0 85.5 436
05:22:48 6 1009 0 0 SO 0 85.4 436
05:25:46 6 1009 3 0 SO 0 85.6 430
05:28:48 6 1010 5 0 SO 0 85.9 436
05:31:46 6 1010 8 0 SO 0 85.9 442
05:34:46 6 1009 13 2 W 0 86.2 442
05:37:48 6 1009 20 0 W 0 86.9 439
05:40:48 6 1009 26 0 O 0 87.9 436
05:43:46 6 1009 32 0 O 0 87.8 436
05:46:44 6 1010 39 0 S 0 87.3 434
05:49:47 6 1009 47 0 S 0 87.2 445
05:52:48 6 1009 54 0 S 0 87.2 442
05:55:46 6 1010 62 0 S 0 87.2 445
05:58:45 6 1009 70 0 S 0 87.1 442
06:01:46 6 1010 79 0 S 0 87.1 439
06:04:47 6 1010 88 0 S 0 87.1 436
06:07:48 6 1009 97 0 S 0 87.4 436
06:10:47 6 1010 103 1 W 0 87.7 442
06:13:49 6 1009 106 1 W 0 88.3 445
06:16:47 6 1009 111 2 W 0 88.6 448
06:19:49 6 1009 114 2 NW 0 88.9 444
06:22:46 6 1009 116 3 W 0 89 440
06:25:49 6 1009 120 2 SW 0 89 434
06:28:48 6 1010 130 0 W 0 88.7 431
06:31:47 6 1009 136 1 S 0 88.3 430
06:34:46 7 1009 142 3 W 0 88.3 434
06:37:48 7 1010 148 2 W 0 88.3 434
06:40:47 7 1010 153 3 W 0 88.2 428
06:43:48 7 1009 158 1 SW 0 88.1 425
06:46:47 7 1010 160 5 W 0 88 431
06:49:48 7 1010 161 3 W 0 87.4 434
06:52:52 7 1009 162 4 NW 0 86.6 434
06:55:49 7 1010 162 3 NW 0 86.4 442
06:58:49 7 1009 162 3 NW 0 86 443
07:01:48 7 1009 163 4 W 0 85.8 439
07:04:46 7 1010 165 3 W 0 85.9 431
07:07:48 8 1009 168 2 N 0 86 431
07:10:48 8 1010 170 4 N 0 85.2 436
07:13:45 8 1010 172 3 W 0 85 434
07:16:49 8 1009 176 6 NW 0 85 431
07:19:47 8 1009 181 5 W 0 85.1 425
07:22:47 8 1010 185 4 NW 0 85.1 439
07:25:48 8 1010 189 3 SW 0 85.2 433
07:28:48 8 1010 192 4 W 0 85.6 437
07:31:48 8 1010 194 3 W 0 85.4 436
07:34:49 8 1010 196 2 W 0 85.6 440
07:37:48 8 1010 198 3 W 0 85 442
07:40:47 8 1010 199 1 SW 0 84.7 440
07:43:48 8 1010 200 6 W 0 84.2 437
07:46:46 8 1010 201 2 W 0 83.6 432
07:49:48 8 1010 202 1 NW 0 83.5 437
07:52:47 9 1010 204 2 NW 0 83.5 436
07:55:48 9 1010 205 1 W 0 82.5 441
07:58:48 9 1010 206 4 N 0 82.6 443
08:01:48 9 1010 208 8 NW 0 81.8 443
08:04:48 9 1009 209 5 NW 0 81.2 444
08:07:47 9 1010 210 7 NW 0 81 439
08:10:48 10 1009 211 3 W 0 80.6 433
08:13:48 10 1010 211 1 S 0 80 434
08:16:50 10 1009 212 1 SW 0 79.2 428
08:19:50 10 1010 213 3 NW 0 78.8 419
08:22:49 10 1010 213 2 S 0 77.9 426
08:25:48 10 1010 214 3 NW 0 77.6 437
08:28:49 10 1010 214 0 O 0 77.5 436
08:31:52 10 1010 214 3 NW 0 77.6 440
08:34:50 11 1010 215 8 NW 0 76.9 434
08:37:47 11 1010 216 0 N 0 75.4 436
08:40:50 11 1009 216 2 NW 0 75.6 442
08:43:47 11 1010 216 1 W 0 75.7 437
08:46:48 11 1010 215 5 NW 0 76.5 436
08:49:49 10 1010 215 4 S 0 76.2 437
08:52:47 10 1010 215 0 N 0 76.3 437
08:55:50 11 1010 215 5 NW 0 76.2 431
08:58:47 11 1009 215 3 W 0 75.9 430
09:01:48 11 1010 214 7 W 0 76.3 439
09:04:47 11 1010 212 7 W 0 76.5 441
09:07:48 11 1010 211 1 S 0 76.2 434
09:10:49 11 1010 210 5 W 0 75.1 430
09:13:49 11 1010 210 3 SW 0 75 430
09:16:48 11 1010 211 5 N 0 74.6 434
09:19:47 11 1009 213 2 N 0 73.9 431
09:22:48 11 1010 214 7 NW 0 74.4 436
09:25:48 11 1010 215 5 W 0 74.7 437
09:28:48 11 1009 216 4 W 0 74.6 434
09:31:50 11 1010 217 6 W 0 74 434
09:34:48 11 1010 217 3 SW 0 74.3 434
09:37:47 11 1010 217 1 N 0 73.7 433
09:40:48 11 1010 218 4 NO 0 71.2 436
09:43:46 11 1010 218 5 N 0 71 431
09:46:47 11 1010 218 4 W 0 73 434
09:49:50 12 1009 218 2 W 0 73.2 431
09:52:50 12 1010 218 5 NW 0 73 436
09:55:49 12 1009 218 0 SW 0 72.8 436
09:58:48 12 1010 219 1 SW 0 69.7 440
10:01:50 12 1010 220 10 NW 0 68.8 434
10:04:48 11 1010 220 4 NW 0 68.9 433
10:07:47 11 1010 221 4 N 0 69.7 431
10:10:49 11 1010 221 11 NW 0 69.8 436
10:13:47 11 1010 220 4 N 0 70.2 431
10:16:47 11 1010 220 4 W 0 71.8 428
10:19:49 11 1010 221 7 NW 0 71.5 431
10:22:48 12 1010 224 3 NW 0 70.5 426
10:25:47 12 1010 225 2 N 0 69.9 430
10:28:48 12 1010 226 3 SO 0 68.7 428
10:31:50 13 1010 226 2 NW 0 67.5 425
10:34:32 11 1010 226 6 N 0 60.5 431
10:37:48 12 1010 226 9 N 0 63.2 439
10:40:33 11 1010 227 3 NW 0 53.5 439
10:43:50 12 1010 227 0 SO 0 68.1 428
10:46:52 13 1009 227 2 NW 0 67 420
10:49:50 13 1010 228 6 NW 0 66.3 427
10:52:50 13 1010 228 0 NW 0 66 428
10:55:48 13 1009 228 2 W 0 64.7 425
10:58:47 14 1010 228 3 S 0 65.5 421
11:01:50 14 1010 228 2 S 0 61.9 420
11:04:49 13 1009 228 8 W 0 62.9 425
11:07:48 14 1010 228 0 NW 0 63.9 427
11:10:48 14 1010 228 1 NW 0 61.7 433
11:13:47 14 1009 228 5 N 0 60.7 431
11:16:49 14 1009 228 3 NW 0 61.3 427
11:19:50 14 1010 229 3 S 0 62.3 425
11:22:47 14 1009 228 7 NW 0 61.7 419
11:25:47 14 1010 229 7 W 0 61 419
11:28:50 14 1010 228 9 NW 0 62 419
11:31:46 14 1009 228 1 W 0 61.9 419
11:34:47 14 1010 227 2 0 59.8 419
11:37:47 14 1009 226 3 N 0 59.2 422
11:40:48 15 1010 226 4 W 0 60.5 426
11:43:48 15 1010 227 2 W 0 60.6 423
11:46:47 15 1009 227 2 N 0 60.5 425
11:49:47 15 1009 229 2 S 0 61.4 422
11:52:47 15 1009 230 6 O 0 60.5 422
11:55:46 15 1010 230 7 SW 0 59.1 424
11:58:47 15 1009 230 0 S 0 60.2 429
12:01:49 16 1009 230 2 O 0 56.6 428
12:04:49 16 1010 230 6 W 0 56.7 424
12:07:48 16 1009 229 2 S 0 57 425
12:10:48 16 1009 230 0 SW 0 55.6 419
12:13:46 16 1010 231 3 W 0 56.3 413
12:16:48 17 1010 231 5 NW 0 57.6 413
12:19:48 17 1009 230 7 N 0 52.1 413
12:22:48 16 1009 231 2 W 0 54.5 419
12:25:48 16 1009 231 7 W 0 57.4 413
12:28:47 17 1009 231 5 S 0 56.8 412
12:31:51 17 1010 231 10 NW 0 52.8 414
12:34:48 16 1009 231 0 SW 0 52.6 413
12:37:50 16 1009 231 8 NW 0 55.9 422
12:40:49 16 1009 230 0 W 0 56.6 419
12:43:49 16 1009 231 6 NW 0 56.5 419
12:46:47 17 1009 231 4 S 0 55.3 422
12:49:48 18 1009 231 12 W 0 49.6 416
12:52:49 18 1009 232 0 NW 0 51.7 419
12:55:47 18 1009 232 1 O 0 52.5 418
12:58:51 18 1009 232 7 NW 0 47.4 432
13:01:48 17 1008 232 4 O 0 54.6 428
13:04:48 18 1009 231 9 W 0 52.8 428
13:07:49 18 1009 231 7 NW 0 51.9 423
13:10:50 18 1009 230 10 W 0 48.4 419
13:13:50 18 1009 230 5 SW 0 48.5 419
13:16:45 18 1009 231 3 S 0 49 419
13:19:48 19 1009 231 3 W 0 51.2 416
13:22:33 17 1009 232 12 W 0 40 413
13:25:49 19 1009 233 2 SO 0 48.7 416
13:28:46 19 1008 233 8 N 0 49.8 413
13:31:51 19 1009 233 7 NW 0 48.6 416
13:34:51 19 1009 234 3 NW 0 50.3 411
13:37:49 19 1009 235 4 N 0 46.4 410
13:40:47 19 1009 236 2 O 0 47.3 405
13:43:47 20 1008 236 11 S 0 49.4 407
13:46:48 20 1008 236 5 W 0 50.3 413
13:49:50 21 1009 236 4 SO 0 47.1 423
13:52:49 21 1008 236 1 SO 0 41.8 424
13:55:48 21 1008 236 1 SW 0 41.9 418
13:58:50 21 1008 236 11 W 0 43.2 425
14:01:47 20 1008 235 8 W 0 44.9 427
14:04:48 19 1009 234 15 N 0 45.5 419
14:07:50 17 1008 235 16 NW 0 46.6 410
14:10:49 17 1009 235 14 NW 0 51.3 410
14:13:48 17 1008 236 9 W 0 52.3 410
14:16:49 18 1008 237 4 NO 0 51.9 413
14:19:48 19 1008 237 3 W 0 49.1 419
14:22:47 19 1008 240 3 N 0 48.7 411
14:25:48 18 1008 240 15 W 0 48.3 413
14:28:48 19 1008 241 3 W 0 49.8 410
14:31:47 19 1008 241 3 NW 0 48.8 411
14:34:49 19 1008 241 6 W 0 47.6 410
14:37:48 19 1008 242 7 N 0 43.6 410
14:40:48 18 1008 242 2 SW 0 47.9 407
14:43:48 19 1008 242 6 W 0 48.2 416
14:46:48 18 1007 243 5 SW 0 43.2 419
14:49:48 18 1007 243 2 S 0 47.7 416
14:52:51 19 1008 243 5 SO 0 48.2 415
14:55:46 19 1007 243 8 W 0 47.8 413
14:58:48 19 1008 244 2 NW 0 46.1 413
15:01:51 20 1008 239 0 NW 0 42.4 407
15:04:48 20 1007 242 3 N 0 43 404
15:07:48 20 1008 242 10 W 0 43.8 410
15:10:47 19 1007 241 5 W 0 44 404
15:13:49 18 1007 244 4 NW 0 45.9 410
15:16:49 18 1007 245 7 N 0 44.8 410
15:19:48 18 1007 245 3 SW 0 48.4 413
15:22:50 19 1008 245 3 NW 0 45 413
15:25:49 19 1007 243 8 NW 0 44.6 413
15:28:49 19 1007 245 4 W 0 46.2 411
15:31:48 19 1007 246 7 SO 0 42.4 416
15:34:50 20 1006 246 9 NW 0 41.9 416
15:37:50 20 1008 246 6 NW 0 45.1 416
15:40:49 20 1007 244 6 NW 0 42.1 416
15:43:49 20 1007 245 7 SW 0 45.3 408
15:46:48 20 1007 245 4 SW 0 43.4 413
15:49:51 20 1007 242 4 NW 0 44 416
15:52:48 20 1007 244 6 N 0 39.3 420
15:55:49 19 1007 243 5 W 0 39.3 413
15:58:49 19 1007 241 6 NW 0 42 411
16:01:46 19 1006 242 6 W 0 44.1 413
16:04:48 20 1006 243 6 NW 0 43.4 416
16:07:48 20 1007 246 8 NW 0 42.8 407
16:10:51 20 1006 247 10 NW 0 40.5 410
16:13:48 19 1007 247 15 NW 0 40.1 407
16:16:48 19 1007 246 13 W 0 40.4 413
16:19:48 19 1007 247 5 NW 0 42.2 416
16:22:49 18 1007 246 16 NW 0 41.3 409
16:25:49 18 1007 247 2 SO 0 42.3 407
16:28:49 18 1007 246 12 NW 0 42.1 407
16:31:48 18 1007 246 5 W 0 44.8 405
16:34:49 18 1007 247 1 SO 0 44.8 407
16:37:49 18 1006 246 2 S 0 43.8 413
16:40:48 19 1007 246 5 W 0 42.9 408
16:43:50 20 1007 246 7 NW 0 41.6 404
16:46:48 19 1006 246 7 N 0 39.4 404
16:49:46 19 1007 246 4 N 0 39 404
16:52:47 19 1007 246 0 S 0 42.5 405
16:55:48 19 1006 246 5 N 0 39.6 407
16:58:49 19 1006 246 6 N 0 40 404
17:01:49 19 1006 246 2 SO 0 40.8 406
17:04:47 19 1007 246 2 S 0 41.8 404
17:07:47 19 1006 246 5 W 0 43 404
17:10:48 20 1007 246 2 NW 0 41.9 405
17:13:50 20 1006 245 3 NW 0 39.3 407
17:16:46 20 1006 246 1 O 0 39.2 404
17:19:47 19 1006 238 4 0 39.8 407
17:22:48 18 1007 246 4 N 0 40.5 404
17:25:32 18 1006 237 1 SW 0 40 406
17:28:48 18 1006 238 2 N 0 44.3 404
17:31:47 17 1007 234 4 SW 0 44.3 407
17:34:50 16 1006 230 10 NW 0 46.3 404
17:37:49 16 1006 225 8 W 0 47.1 407
17:40:50 15 1006 219 13 NW 0 49.6 404
17:43:47 15 1007 212 4 W 0 50.6 407
17:46:48 15 1006 211 0 NW 0 52 404
17:49:48 15 1006 214 4 W 0 52.6 407
17:52:47 15 1006 216 5 W 0 51.1 404
17:55:49 15 1006 218 4 NO 0 49.9 404
17:58:47 15 1006 217 10 N 0 49 410
18:01:49 15 1006 213 12 N 0 49.7 410
18:04:48 15 1006 212 5 NW 0 51.3 410
18:07:47 14 1006 211 13 NW 0 52.4 410
18:10:50 14 1006 212 8 NW 0 52.8 413
18:13:47 15 1007 213 4 NW 0 53.6 410
18:16:45 15 1006 215 2 N 0 53.4 407
18:19:49 14 1006 213 2 NW 0 53.1 408
18:22:49 14 1006 217 5 N 0 52.2 410
18:25:48 14 1006 222 5 NW 0 51.8 413
18:28:51 14 1007 226 6 NO 0 50.9 416
18:31:47 14 1007 221 4 W 0 50.8 413
18:34:47 14 1006 214 2 NO 0 52.1 415
18:37:47 15 1007 212 2 W 0 51.9 413
18:40:50 14 1006 211 2 NW 0 51.3 406
18:43:48 14 1006 209 9 NW 0 50.5 407
18:46:48 14 1006 203 3 N 0 50.6 404
18:49:48 14 1006 199 4 NO 0 51.1 407
18:52:48 14 1006 197 5 NW 0 53.5 413
18:55:48 14 1006 199 0 NO 0 53.7 410
18:58:48 14 1006 204 0 SW 0 53.4 406
19:01:49 14 1006 207 1 N 0 53.3 404
19:04:49 14 1006 210 4 NW 0 53.2 404
19:07:48 14 1006 212 4 O 0 56 404
19:10:50 14 1007 212 2 NW 0 56.7 404
19:13:47 14 1006 207 4 W 0 57.1 413
19:16:48 14 1006 202 5 NW 0 57.6 407
19:19:48 14 1006 197 6 NW 0 58.2 406
19:22:48 14 1006 193 3 W 0 58.7 405
19:25:50 13 1007 184 4 NW 0 58.6 406
19:28:49 13 1006 176 4 NW 0 58.6 408
19:31:48 13 1006 169 4 W 0 59.2 407
19:34:47 13 1006 164 2 N 0 59.6 407
19:37:48 13 1006 163 1 NW 0 59.4 404
19:40:50 13 1006 161 3 NW 0 59.9 407
19:43:49 13 1006 158 2 W 0 60.2 405
19:46:46 13 1006 154 4 W 0 60.5 407
19:49:47 13 1007 147 2 W 0 60.9 407
19:52:46 13 1007 142 4 W 0 61.2 407
19:55:49 13 1006 139 0 SW 0 61.6 407
19:58:47 13 1006 138 1 W 0 62.2 404
20:01:52 12 1006 142 2 NW 0 62.8 405
20:04:51 12 1006 150 0 NW 0 63.3 407
20:07:53 12 1006 151 0 NW 0 63.2 404
20:10:49 12 1006 147 3 W 0 63.9 404
20:13:46 12 1006 137 6 W 0 64.3 407
20:16:47 12 1006 116 6 W 0 64.4 404
20:19:47 12 1006 96 2 SW 0 64.7 404
20:22:47 12 1006 79 2 NW 0 64.7 407
20:25:48 11 1007 67 3 NW 0 64.8 404
20:28:49 11 1007 59 2 W 0 65.3 405
20:31:51 11 1006 50 2 NW 0 65.3 405
20:34:46 11 1006 42 1 NW 0 65.7 410
20:37:47 11 1007 34 1 W 0 65.8 410
20:40:48 11 1006 27 3 NW 0 66.3 410
20:43:51 11 1006 21 3 W 0 66.6 407
20:46:47 11 1006 17 2 NW 0 66.7 410
20:49:49 11 1006 13 5 NW 0 66.7 410
20:52:48 11 1007 10 7 NW 0 66.5 407
20:55:46 11 1007 8 3 N 0 66.2 404
20:58:48 12 1007 5 0 NW 0 66.1 410
21:01:49 11 1007 3 6 NW 0 65.8 419
21:04:47 11 1007 0 2 NW 0 65.5 420
21:07:46 11 1007 0 3 NO 0 65.6 407
21:10:48 11 1007 0 0 NO 0 65.5 410
21:13:46 11 1006 0 1 N 0 65.8 416
21:16:46 11 1007 0 1 NW 0 65.5 416
21:19:49 11 1007 0 1 NW 0 65.2 413
21:22:47 11 1007 0 1 NO 0 65 410
21:25:45 11 1007 0 1 N 0 64.9 410
21:28:49 11 1007 0 0 W 0 64.9 408
21:31:46 11 1007 0 1 NW 0 64.8 404
21:34:45 11 1006 0 0 O 0 64.9 407
21:37:47 11 1007 0 0 N 0 64.9 404
21:40:47 11 1008 0 4 N 0 64.8 410
21:43:48 11 1007 0 1 NW 0 64.7 407
21:46:45 11 1007 0 3 N 0 64.7 412
21:49:48 11 1006 0 1 NW 0 64.5 410
21:52:48 11 1007 0 3 NW 0 64 415
21:55:46 11 1007 0 3 W 0 63.9 410
21:58:46 11 1008 0 0 N 0 64 413
22:01:49 11 1007 0 0 NW 0 63.9 416
22:04:47 11 1007 0 1 0 64 413
22:07:46 11 1007 0 0 N 0 64.5 413
22:10:47 11 1007 0 1 N 0 64.7 413
22:13:49 11 1007 0 2 SW 0 64.8 417
22:16:46 11 1007 0 0 N 0 64.8 417
22:19:48 11 1007 0 1 N 0 64.9 416
22:22:49 11 1007 0 0 SW 0 64.9 416
22:25:49 11 1007 0 0 SW 0 64.9 413
22:28:47 11 1007 0 1 N 0 65 416
22:31:48 11 1006 0 1 N 0 65.3 418
22:34:51 11 1007 0 0 NW 0 65.7 416
22:37:47 11 1007 0 0 NW 0 65.7 422
22:40:54 11 1007 0 0 NW 0 65.3 424
22:43:48 11 1007 0 0 NW 0 65.3 417
22:46:47 11 1006 0 0 N 0 65.7 416
22:49:49 11 1008 0 0 NW 0 66.2 416
22:52:46 11 1007 0 0 N 0 66.2 413
22:55:45 11 1007 0 1 N 0 66.1 413
22:58:48 11 1008 0 1 NW 0 66.1 413
23:01:46 11 1007 0 3 NW 0 65.9 413
23:04:49 11 1007 0 3 NW 0 65.7 407
23:07:47 11 1007 0 0 O 0 65.6 407
23:10:48 11 1007 0 1 NW 0 65.6 410
23:13:48 11 1007 0 3 W 0 65.5 419
23:16:47 11 1007 0 1 NW 0 65.3 419
23:19:48 11 1007 0 0 W 0 65.3 413
23:22:46 11 1007 0 1 N 0 65 410
23:25:46 11 1007 0 0 N 0 64.9 415
23:28:50 11 1007 0 3 NW 0 64.9 418
23:31:49 11 1007 0 2 W 0 65.1 416
23:34:47 10 1007 0 0 NW 0 65.2 421
23:37:46 10 1007 0 0 NW 0 65.1 421
23:40:48 10 1007 0 0 NW 0 65.8 419
23:43:49 10 1008 0 0 NW 0 66.2 422
23:46:49 10 1007 0 0 NW 0 66.6 422
23:49:48 10 1007 0 0 NW 0 67.2 421
23:52:50 10 1007 0 0 NW 0 67.6 425
23:55:50 10 1007 0 0 NW 0 68.5 428
23:58:47 10 1007 0 0 NW 0 68.8 424

Letzte Änderung : 22-Jul-2022
Copyright Jens Köhler, Wolfsburg, Obere Dorfstraße 10d